Back to catalog

COSMOS 1275 DEB

AlivePO
NORAD 27797·DEBRIS·🇷🇺 Russia

Launched Jun 4, 1981 from Plesetsk Cosmodrome

Loading…

Next Passes (next 24 hours)

TLE

AgingSource: Space-Track

Epoch: Sep 7, 2026, 04:47 UTC

1 27797U 81053MR  26250.19961851  .00000649  00000-0  84008-3 0  9996
2 27797  83.1396  50.1285 0185528 247.2986 290.2185 13.54135536649284

Track COSMOS 1275 DEB in real time with AllMySat

Download on the App Store